Regional Weather Roundup
Issued by NWS State College, PA

Home | Current Version | Previous Version | Text Only | Print | Product List | Glossary On
Versions: 1 2 3 4 5 6 7 8 9 10 11 12 13 14 15 16 17 18 19 20 21 22 23 24 25 26 27 28 29 30 31 32 33 34 35 36 37 38 39 40 41 42 43 44 45 46 47 48 49 50
000
ASUS41 KCTP 191103
RWRCTP

REGIONAL WEATHER ROUNDUP
NATIONAL WEATHER SERVICE STATE COLLEGE PA
700 AM EDT SAT APR 19 2014

Note: "fair" indicates few or no clouds below 12,000 feet with no
significant weather and/or obstructions to visibility.

* = STATION THAT DOES NOT REPORT PRECIPITATION /E.G. RAIN...SNOW...ETC/
    THUNDER OR FOG.

PAZ002>004-007>009-013>016-020>023-029>032-191200-
WESTERN PENNSYLVANIA

CITY           SKY/WX    TMP DP  RH WIND       PRES   REMARKS
ERIE           CLEAR     35  29  78 N9        30.38R
MEADVILLE      CLEAR     35  31  85 N3        30.33R
FRANKLIN*      CLEAR     36  30  80 N6        30.34R
NEW CASTLE     FAIR      40  36  86 N8        30.35R
BEAVER COUNTY  CLEAR     41  39  93 N5        30.32
BUTLER*        PTCLDY    39  34  81 N5        30.33R
PITTSBURGH INT CLOUDY    45  39  79 N6        30.31R
PITTSBURGH     PTCLDY    46  38  73 N5        30.29R
INDIANA*       PTCLDY    37  37 100 CALM      30.31R
LATROBE        PTCLDY    39  37  93 CALM      30.30R
WASHINGTON CO* PTCLDY    45  37  76 NE5       30.30R
$$

PAZ004>006-010>012-017>019-024>028-033>037-041-042-045-046-049>053-191200-
CENTRAL PENNSYLVANIA

CITY           SKY/WX    TMP DP  RH WIND       PRES   REMARKS
BRADFORD       CLEAR     32  28  85 N5        30.28R
DUBOIS         PTCLDY    40  33  76 N3        30.29R
CLEARFIELD     PTCLDY    36  34  92 NW3       30.29R
JOHNSTOWN      PTCLDY    41  34  76 E5        30.27R
ALTOONA        PTCLDY    39  34  82 CALM      30.29R
STATE COLLEGE  CLEAR     37  32  81 CALM      30.29R
WILLIAMSPORT   MOCLDY    35  31  85 CALM      30.30R
SELINSGROVE    PTCLDY    34  32  92 NW3       30.30R FOG
FT INDIANTOWN  NOT AVBL
CAPITAL CITY   PTCLDY    39  35  86 CALM      30.29R
HARRISBURG     MOCLDY    42  35  76 NW5       30.28R
YORK           MOCLDY    35  33  92 CALM      30.28R
$$

PAZ038>040-043-044-047-048-054-055-060>062-067>071-191200-
EASTERN PENNSYLVANIA

CITY           SKY/WX    TMP DP  RH WIND       PRES   REMARKS
SCRANTON       PTCLDY    36  31  82 VRB6      30.27R
MOUNT POCONO   PTCLDY    39  33  79 NW12      30.22R
ALLENTOWN      PTCLDY    38  33  82 SW3       30.27R
QUAKERTOWN*    MOSUNNY   36  32  87 CALM      30.27R
READING        PTCLDY    39  34  82 N3        30.27R
LANCASTER      MOCLDY    39  33  79 CALM      30.27R
COATESVILLE    PTSUNNY   45  34  65 NW6       30.26R
POTTSTOWN      PTCLDY    39  34  82 CALM      30.27R
BLUE BELL      PTCLDY    43  36  75 CALM      30.26R
DOYLESTOWN     PTCLDY    39  34  82 CALM      30.25R
WILLOW GROVE   NOT AVBL
NORTH PHILA    PTCLDY    40  35  83 NE5       30.28R
PHILADELPHIA   MOCLDY    44  39  82 CALM      30.28R
$$



USA.gov is the U.S. government's official web portal to all federal, state and local government web resources and services.